Starlink 5190

operational
NORAD ID: 54092 Int'l Des: 2022-136 Owner: SPXS Country: US Constellation: starlink
LEOCIRCULAR

About Starlink 5190

Description loading...

Live Position

Loading 3D Globe...

Upcoming Passes

Altitude History

Altitude vs Time

uPlot chart will show altitude changes over time

Two-Line Element Set

1 54092U 22136AT 25353.88023103 .00023443 00000-0 33931-3 0 9995
2 54092 53.1814 203.1148 0005428 105.7679 254.3932 15.55800034176752
Epoch: Dec 19, 2025 • Age: 11 hours

Current Status

Altitude 402.8 km
Velocity 7.68 km/s
Sub-Earth Point 53.33°N, 78.36°E
Launch Date Oct 20, 2022
Age 3.1 years
Type internet

Technical Details

Classification Payload
Mass 305.00 kg
Dry Mass 290.00 kg
Total Mass 305.00 kg
Length 0.20 m
Diameter 2.80 m
Span 9.00 m
Shape Box + pan
Manufacturer SPXS
Bus Type Starlink
Phase Status In Orbit
Owner/State SPXS/US

Large Constellations

Loading constellations...